Zurück zum Katalog

STARLINK-1656

AktivKommunikationVLEO
NORAD 46353·PAYLOAD·🇺🇸 United States

Gestartet Sep 3, 2020 von Cape Canaveral Space Force Station

Loading…

Nächste Überflüge (nächste 24 Stunden)

TLE

AktuellSource: CelesTrak SupGP

Epoche: Sep 15, 2026, 01:41 UTC

1 46353C 20062AF  26258.07062500  .04366900  00000+0  10994-2 0  2584
2 46353  53.0215 138.3458 0010120 256.2946 310.9043 16.28029245    19

Verfolge STARLINK-1656 in Echtzeit mit AllMySat

Download on the App Store